Flag for Germany Weather past 2 weeks in Meppen, Lower Saxony, Germany

Now
48 °F

Cool.


Feels Like: 47 °F
Forecast: 47 / 58 °F
Wind: 3 mph from West

Location: Meppen

Current Time: May 27, 2015 at 7:13:06 AM

Latest Report: May 27, 2015 at 6:00 AM


Visibility: 6 mi

Pressure: 30.22 "Hg

Humidity: 81%

Dew point: 42 °F

Location of MeppenLocation

Historic Weather in Meppen — Graph

°F

Meppen temperature yesterday

Maximum temperature yesterday: 56 °F (at 2:00 PM)
Minimum temperature yesterday: 43 °F (at 6:00 AM)
Average temperature yesterday: 51 °F

Past Weeks' High & Low Weather Summary

 TemperatureHumidityPressure
High67 °F (May 22, 3:00 PM)95% (May 24, 6:00 AM)30.33 "Hg (May 24, 6:00 AM)
Low33 °F (May 24, 6:00 AM)26% (May 24, 7:00 PM)29.59 "Hg (May 19, 4:00 AM)
Average52 °F70%30.05 "Hg
* Reported May 12 4:00 AM — May 27 4:00 AM, Meppen, Weather by CustomWeather, © 2015

Note: Actual official high and low records may vary slightly from our data, if they occured in-between our weather recording intervals... More about our weather records

Advertising

Meppen weather history for previous 24 hours

 ConditionsComfort  
Time TempWeatherWind HumidityBarometerVisibility
4:00 AM
Wed, May 27
47 °FCool.2 mph80%30.23 "Hg6 mi
3:00 AM48 °FCool.2 mph78%30.22 "Hg6 mi
1:00 AM49 °FCool.2 mph77%30.22 "Hg6 mi
12:00 AM49 °FCool.2 mph78%30.23 "Hg6 mi
10:00 PM
Tue, May 26
49 °FCool.1 mph75%30.22 "Hg6 mi
9:00 PM51 °FCool.3 mph67%30.20 "Hg3 mi
8:00 PM52 °FCool.3 mph63%30.19 "Hg6 mi
7:00 PM54 °FCool.5 mph56%30.17 "Hg6 mi
6:00 PM54 °FCool.5 mph58%30.16 "Hg6 mi
4:00 PM53 °FCool.5 mph67%30.14 "Hg4 mi
3:00 PM55 °FOvercast.3 mph58%30.12 "Hg25 mi
2:00 PM56 °FPartly sunny.6 mph51%30.11 "Hg25 mi
1:00 PM53 °FSprinkles. Overcast.3 mph64%30.11 "Hg25 mi
12:00 PM55 °FPartly sunny.3 mph70%30.09 "Hg28 mi
10:00 AM52 °FOvercast.5 mph68%30.09 "Hg25 mi
9:00 AM49 °FSprinkles. Passing clouds.6 mph81%30.08 "Hg13 mi
8:00 AM47 °FSprinkles. Overcast.2 mph84%30.07 "Hg19 mi
7:00 AM47 °FScattered clouds.2 mph81%30.05 "Hg28 mi
Weather by CustomWeather, © 2015

See weather overviewHow to use our weather pages